Home   Weather   Anderson   Past weeks

Flag for USA Past Weather in Anderson, South Carolina, USA — Yesterday and Last 2 Weeks

Now
66 °F

Scattered clouds.


Feels Like: 66 °F
Forecast: 55 / 82 °F
Wind: No wind

Location: Anderson County Airport

Current Time: Apr 26, 2017 at 12:10:19 pm

Latest Report: Apr 26, 2017 at 10:56 am


Visibility: 10 mi

Pressure: 29.84 "Hg

Humidity: 84%

Dew Point: 61 °F

Location of AndersonLocation

Past Weather in Anderson — Graph

°F

Anderson Temperature Yesterday

Maximum temperature yesterday: 77 °F (at 4:56 pm)
Minimum temperature yesterday: 56 °F (at 2:28 am)
Average temperature yesterday: 65 °F

High & Low Weather Summary for the Past Weeks

 TemperatureHumidityPressure
High86 °F (Apr 21, 3:56 pm)100% (Apr 20, 7:56 am)30.37 "Hg (Apr 20, 7:56 am)
Low50 °F (Apr 24, 3:56 am)27% (Apr 13, 5:56 pm)29.67 "Hg (Apr 25, 4:56 pm)
Average66 °F74%30.06 "Hg
* Reported Apr 11 10:56 am — Apr 26 10:56 am, Anderson, Weather by CustomWeather, © 2017

Note: Actual official high and low records may vary slightly from our data, if they occured in-between our weather recording intervals... More about our weather records

Advertising

Anderson Weather History for the Previous 24 Hours

Scroll right to see more
 ConditionsComfort  
Time TempWeatherWind HumidityBarometerVisibility
10:56 am
Wed, Apr 26
66 °FScattered clouds.No wind84%29.84 "Hg10 mi
10:03 am60 °FFog.3 mph96%29.86 "Hg3 mi
9:56 am60 °FFog.No wind100%29.84 "Hg1 mi
8:56 am58 °FFog.3 mph97%29.83 "Hg0 mi
8:28 am57 °FFog.3 mph100%29.83 "Hg0 mi
7:56 am56 °FFog.No wind100%29.80 "Hg0 mi
6:56 am54 °FFog.No wind100%29.76 "Hg0 mi
6:15 am55 °FFog.3 mph93%29.77 "Hg0 mi
5:56 am55 °FPassing clouds.No wind93%29.74 "Hg10 mi
4:56 am55 °FClear.No wind96%29.73 "Hg9 mi
3:56 am59 °FClear.No wind90%29.72 "Hg10 mi
2:56 am58 °FClear.No wind93%29.73 "Hg10 mi
1:56 am61 °FClear.No wind90%29.74 "Hg10 mi
12:56 am61 °FClear.No wind90%29.75 "Hg10 mi
11:56 pm
Tue, Apr 25
64 °FClear.No wind84%29.74 "Hg10 mi
10:56 pm64 °FClear.6 mph84%29.74 "Hg10 mi
9:56 pm67 °FClear.3 mph76%29.72 "Hg10 mi
8:56 pm68 °FClear.5 mph76%29.70 "Hg10 mi
7:56 pm71 °FSunny.6 mph68%29.69 "Hg10 mi
6:56 pm76 °FSunny.9 mph56%29.67 "Hg10 mi
5:56 pm77 °FSunny.10 mph52%29.67 "Hg10 mi
4:56 pm77 °FPassing clouds.8 mph52%29.67 "Hg10 mi
3:56 pm76 °FSunny.12 mph52%29.67 "Hg10 mi
2:56 pm74 °FSunny.3 mph56%29.69 "Hg10 mi
1:56 pm73 °FScattered clouds.N/A55%29.70 "Hg10 mi
12:56 pm71 °FScattered clouds.8 mph61%29.71 "Hg10 mi
12:06 pm69 °FPartly sunny.6 mph66%29.74 "Hg10 mi
Weather by CustomWeather, © 2017

See weather overviewHow to use our weather pages